{"data":{"norad_id":55592,"epoch":"2026-09-20T21:58:28.595136Z","epoch_age_seconds":64451,"freshness":"FRESH","line1":"1 55592U 23020Z   26263.91560874 -.00000200  00000+0  22591-5 0  9998","line2":"2 55592  43.0029 342.3629 0001031 270.5476  89.5258 15.27575566198779","mean_motion":15.27575566,"eccentricity":0.0001031,"inclination_deg":43.0029,"raan_deg":342.3629,"arg_perigee_deg":270.5476,"mean_anomaly_deg":89.5258,"bstar":2.2591e-6,"rev_number":19877,"period_min":94.267022335967,"perigee_km":482.35498340753,"apogee_km":483.76976271826,"semimajor_km":6861.1993730629,"source":"CELESTRAK","updated_at":"2026-09-21T09:00:33.268853Z"}}